Regional Weather Roundup
Issued by NWS

Home | Current Version | Previous Version | Graphics & Text | Print | Product List | Glossary Off
Versions: 1 2 3 4 5 6 7 8 9 10 11 12 13 14 15 16 17 18 19 20 21 22 23 24 25 26 27 28 29 30 31 32 33 34 35 36 37 38 39 40 41 42 43 44 45 46 47 48 49 50

000
ASUS43 KDTX 270510
RWRMI
MICHIGAN HOURLY REGIONAL WEATHER ROUNDUP
NATIONAL WEATHER SERVICE DETROIT/PONTIAC MI
100 AM EDT TUE JUN 27 2017

NOTE: "FAIR" INDICATES FEW OR NO CLOUDS BELOW 12,000 FEET WITH NO
SIGNIFICANT WEATHER AND/OR OBSTRUCTION TO VISIBILITY.

MIZ047>049-052>055-059>063-066>070-074>076-081>083-270600-
SOUTHEAST LOWER MICHIGAN

CITY           SKY/WX    TMP DP  RH WIND       PRES   REMARKS
ADRIAN         CLEAR     54  43  66 W7        30.03R
ALMA           DRIZZLE   53  49  84 W8        30.01S
ANN ARBOR      MOCLDY    51  46  83 SW6       30.01R
BAD AXE        PTCLDY    52  49  89 CALM      29.96R
CARO           MOCLDY    54  49  82 W5        29.96S
DETROIT CITY   CLEAR     56  48  74 W8        29.98S
DETROIT        PTCLDY    55  46  71 W8        30.00S
FLINT          CLOUDY    54  45  71 W9        29.99R
GROSSE ILE     CLEAR     55  48  76 W6        29.99R
HILLSDALE      CLEAR     50  43  76 W6        30.03R
HOWELL         MOCLDY    53  44  71 W7        30.00S

CITY           SKY/WX    TMP DP  RH WIND       PRES   REMARKS
JACKSON        CLEAR     51  44  77 W7        30.02S
LAMBERTVILLE   CLEAR     56  46  69 W6        30.01R
LANSING        CLEAR     53  44  71 W7        30.03R
LAPEER         MOCLDY    54  46  73 W6        29.98S
MASON          CLEAR     51  46  82 W6        30.03R
MONROE         CLEAR     54  47  75 W7        30.00R
MT. CLEMENS    PTCLDY    55  47  75 W10       29.96S
PONTIAC        PTCLDY    53  47  79 W14       29.97S
PORT HOPE        N/A     55  48  77 W5        29.93S
PORT HURON     MOCLDY    50  46  87 CALM      29.96F
TRI CITIES     MOCLDY    54  49  83 W12       29.99R
MIDLAND        CLOUDY    55  47  75 W7        29.98R
TROY           CLOUDY    56  46  69 W7        30.00S
SAGINAW HB     PTCLDY    54  45  71 W9        29.98R
$$
MIZ043>046-050>051-056>058-064>065-071>073-077>080-270600-
SOUTHWEST LOWER MICHIGAN

CITY           SKY/WX    TMP DP  RH WIND       PRES   REMARKS
BATTLE CREEK   CLEAR     51  47  86 W9        30.05R
BENTON HARBOR  PTCLDY    59  48  67 NW7       30.06R
BIG RAPIDS     CLOUDY    51  48  89 W5        30.02R
COLDWATER      CLEAR     52  45  77 W6        30.04S
FREMONT        FAIR      50  49  96 NW3       30.04R
HOLLAND        CLOUDY    59  50  72 NW8       30.05R
GRAND RAPIDS   MOCLDY    53  49  86 W6        30.03R
IONIA          CLOUDY    53  47  78 W8        30.02S
KALAMAZOO      MOCLDY    52  45  77 W5        30.05S
LUDINGTON      PTCLDY    48  48 100 CALM      30.04R
MARSHALL       CLEAR     49  46  88 W6        30.04R
MOUNT PLEASANT LGT RAIN  53  50  90 W5        30.00R
MUSKEGON       CLEAR     56  51  84 NW7       30.05R
SOUTH HAVEN    MOCLDY    59  51  75 NW8       30.06R
$$
MIZ016>042-270600-
NORTHERN LOWER MICHIGAN

CITY           SKY/WX    TMP DP  RH WIND       PRES   REMARKS
ALPENA         LGT RAIN  51  49  92 VRB5      29.95S
BEAVER ISLAND  CLEAR     53  48  84 CALM      29.99S
BELLAIRE       CLOUDY    52  50  94 CALM      30.00S
CADILLAC       CLOUDY    49  48  95 W3        30.01R
CHARLEVOIX     MOCLDY    53  49  87 W3        30.02R
FRANKFORT      FOG       46  46  99 CALM      30.02S VSB 1/4
GAYLORD        CLOUDY    51  47  86 NW5       29.98S
GRAYLING       CLOUDY    49  48  97 CALM      29.99S
HARBOR SPRINGS CLOUDY    51  49  93 CALM      29.98R
HOUGHTON LAKE  CLOUDY    50  46  86 NW3       30.00S
MANISTEE       PTCLDY    46  46 100 CALM      30.03R
OSCODA         CLOUDY    54  47  78 NW13      29.95R
PELLSTON       MOCLDY    48  45  89 W5        29.98S
ROGERS CITY    CLOUDY    50  47  91 NW6       29.96S
TRAVERSE CITY  CLEAR     49  47  93 CALM      29.99S
$$
MIZ007>008-015-270600-
EASTERN UPPER MICHIGAN

CITY           SKY/WX    TMP DP  RH WIND       PRES   REMARKS
KINROSS        CLEAR     45  43  93 W6        29.96S
MACKINAC ISLAN PTCLDY    48  47  98 NW6       29.96S
NEWBERRY       CLEAR     46  45  97 W6        29.97S
S. S. MARIE    CLEAR     47  43  86 W7        29.94S
MUNISING         N/A     45  44  97 S7        29.98S
$$
MIZ004>006-011>014-085-270600-
CENTRAL UPPER MICHIGAN

CITY           SKY/WX    TMP DP  RH WIND       PRES   REMARKS
MANISTIQUE     CLEAR     47  45  90 NW7       29.98S
ESCANABA       CLEAR     46  46 100 W5        30.00S
MENOMINEE      CLEAR     52  49  89 W6        30.03R
SAWYER-GWINN   CLEAR     45  42  88 W3        30.00S
$$
MIZ001>003-009>011-084-270600-
WESTERN UPPER MICHIGAN

CITY           SKY/WX    TMP DP  RH WIND       PRES   REMARKS
IRON MOUNTAIN  CLEAR     46  42  86 CALM      30.01S
HOUGHTON       PTCLDY    52  45  77 NW8       29.98S
COPPER HARBOR    N/A     55  45  68 VRB7      29.96F
$$

ABBREVIATIONS USED IN REMARKS
   TC - TEMPERATURE IN CELSIUS
  WCI - WIND CHILL INDEX
   HX - HEAT INDEX
  VSB - VISIBILITY




USA.gov is the U.S. government's official web portal to all federal, state and local government web resources and services.